Overview Statistics Trail Chart Weather Telemetry Raw packets
 

This is the latest recevied weather packets stored in our database for station/object IW1CBG-3. If no packets are shown the sender has not sent any weather packets the latest 10 day(s).

<< 32 33 34 35 36 37 38 >>
Time Temp. Humidity Pressure Rain* Wind** Luminosity Snow
1787871548 20.56° C 96% 1028.1 hPa 0 mm - - -
1787870948 20.56° C 96% 1028.6 hPa 0 mm - - -
1787870348 20.56° C 96% 1028.8 hPa 0 mm - - -
1787869748 20.56° C 96% 1029.3 hPa 0 mm - - -
1787869148 20.56° C 96% 1028.6 hPa 0 mm - - -
1787868548 20.56° C 96% 1028.5 hPa 0 mm - - -
1787867948 20.56° C 96% 1028.8 hPa 0 mm - - -
1787867348 20.56° C 96% 1028.9 hPa 0 mm - - -
1787866748 21.11° C 95% 1028.8 hPa 0 mm - - -
1787866150 21.11° C 95% 1029.5 hPa 0 mm - - -
1787865548 20.56° C 97% 1030.6 hPa 0 mm - - -
1787864947 20.56° C 97% 1029.9 hPa 0 mm - - -
1787864347 20.56° C 97% 1029.4 hPa 0 mm - - -
1787863748 20.56° C 97% 1029.6 hPa 0 mm - - -
1787863147 20.56° C 97% 1029.3 hPa 0 mm - - -
1787862547 20.56° C 97% 1029.5 hPa 0 mm - - -
1787861947 21.11° C 96% 1029.4 hPa 0 mm - - -
1787861348 21.11° C 96% 1028.9 hPa 0 mm - - -
1787860757 21.11° C 96% 1028.4 hPa 0 mm - - -
1787860148 21.11° C 96% 1028.2 hPa 0 mm - - -
1787859548 21.11° C 96% 1028.4 hPa 0 mm - - -
1787858948 21.67° C 96% 1028.1 hPa 0 mm - - -
1787858348 21.11° C 95% 1028.3 hPa 0 mm - - -
1787857747 21.67° C 95% 1028.4 hPa 0 mm - - -
1787857148 22.22° C 94% 1027.5 hPa 0 mm - - -

* Rain latest hour (hover to see other rain measurements)
** Current wind speed in m/s (hover to see current wind gust speed)